Other Public Products
Issued by NWS Charleston, SC

Current Version | Previous Version | Graphics & Text | Print | Product List | Glossary On
Versions: 1 2 3 4 5 6 7 8 9 10 11 12 13 14 15 16 17 18 19 20 21 22 23 24 25 26 27 28 29 30 31 32 33 34 35 36 37 38 39 40 41 42 43 44 45 46 47 48 49 50
668 FPUS82 KCHS 022012 OPUCHS TEST...KCHS/KSAV Gateway Observations...TEST National Weather Service Charleston SC 300 PM EST FRI DEC 02 2016 NOTE: "fair" indicates few or no clouds below 12,000 feet with no significant weather and/or obstructions to visibility. SCZ050-WAZ558-NCZ071-TXZ119-213-PAZ071-DCZ001-FLZ074-172-MI076- NYZ176-178-MAZ016-IL014-TNZ027-NJZ106-GAZ044-MD014-022100- ...Gateway Observations for Charleston International... CITY SKY/WX TMP DP RH WIND PRES REMARKS Chas Airport SUNNY 62 35 36 N8 30.13S Seattle CLOUDY 46 43 89 SE13 30.20F Charlotte MOSUNNY 58 27 30 NW6 30.12F Dallas DFW CLOUDY 64 34 32 E8 30.08F Dallas Love PTSUNNY 64 34 32 E9 30.09F Philladelphia MOSUNNY 51 27 39 W17G24 29.95R Wash National MOSUNNY 52 30 43 N16G25 30.04R Baltimore MOSUNNY 48 29 47 W21G30 30.01S Miami LGT RAIN 77 73 87 E8 30.02S Detroit CLOUDY 40 27 59 NW17G25 30.09R WCI 31 Newark PTSUNNY 52 25 35 NW13G22 29.87S Laguardia PTSUNNY 52 28 39 W20G30 29.86R J F K PTSUNNY 52 26 36 W22G28 29.88R Boston Logan MOCLDY 49 31 49 W15 29.74R Ft. Lauderdale PTSUNNY 80 72 76 NE8G18 30.02R Chicago O`Hare CLOUDY 38 27 64 NW12 30.19R WCI 30 Chicago Midway CLOUDY 41 29 62 W10 30.19R Houston Bush CLOUDY 64 41 42 E18 30.06F Houston Hobby CLOUDY 64 51 62 E14 30.04F Nashville MOSUNNY 58 27 30 NW6 30.23F Atlanta MOSUNNY 60 26 27 N14 30.20F $$ GAZ044-118-TXZ119-213-NCZ071-DCZ001-MDZ014-506-PAZ021-071-NJZ106- NYZ176-178-MAZ106-OHZ011-021-055-MIZ076-KYZ091-ILZ014-INZ047- MNZ060-022100- ...Gateway Observations for Savannah International... CITY SKY/WX TMP DP RH WIND PRES REMARKS Savannah Arpt MOSUNNY 63 35 35 N7 30.15S Atlanta MOSUNNY 60 26 27 N14 30.20F Charlotte MOSUNNY 58 27 30 NW6 30.12F Dallas DFW CLOUDY 64 34 32 E8 30.08F Houston Bush CLOUDY 64 41 42 E18 30.06F Wash National MOSUNNY 52 30 43 N16G25 30.04R Wash Dulles MOSUNNY 49 29 46 NW14 30.04R Baltimore MOSUNNY 48 29 47 W21G30 30.01S Philadelphia MOSUNNY 51 27 39 W17G24 29.95R Newark PTSUNNY 52 25 35 NW13G22 29.87S Laguardia PTSUNNY 52 28 39 W20G30 29.86R J F K PTSUNNY 52 26 36 W22G28 29.88R Boston MOCLDY 49 31 49 W15 29.74R Pittsburg CLOUDY 40 30 67 W14 30.05R WCI 32 Akron CLOUDY 39 29 67 W16G24 30.07R WCI 30 Cleveland CLOUDY 39 34 82 W13 30.09R WCI 31 Cincinnati CLOUDY 39 29 67 W10 30.20R WCI 32 Columbus CLOUDY 38 31 76 W13G20 30.17R WCI 30 Detroit CLOUDY 40 27 59 NW17G25 30.09R WCI 31 Chicago O`Hare CLOUDY 38 27 64 NW12 30.19R WCI 30 Minneapolis CLOUDY 33 22 63 NW7 30.24R WCI 27 Indianapolis CLOUDY 40 32 73 W10 30.21R WCI 33 $$

USA.gov is the U.S. government's official web portal to all federal, state and local government web resources and services.